| time (UTC) | temp F | wind direction | speed MPH | gust MPH | rain 1hr in | rain 24hr in | rain mn in | humidity % | barometer mb |
| 20260901051606 | 66 | 27 | 2.0 | 7.0 | 0.00 | 0.00 | 0.00 | 39 | 1014.6 |
| 20260901050059 | 67 | 108 | 0.0 | 4.0 | 0.00 | 0.00 | 0.00 | 38 | 1014.6 |
| 20260901044615 | 67 | 0 | 0.0 | 0.0 | 0.00 | 0.00 | 0.00 | 36 | 1014.6 |
| 20260901043102 | 67 | 0 | 0.0 | 2.0 | 0.00 | 0.00 | 0.00 | 37 | 1014.5 |
| 20260901041547 | 68 | 0 | 0.0 | 3.0 | 0.00 | 0.00 | 0.00 | 37 | 1014.5 |
| 20260901040058 | 68 | 0 | 1.0 | 6.0 | 0.00 | 0.00 | 0.00 | 37 | 1014.4 |
| 20260901034551 | 69 | 0 | 0.0 | 1.0 | 0.00 | 0.00 | 0.00 | 37 | 1014.1 |
| 20260901033048 | 70 | 0 | 0.0 | 2.0 | 0.00 | 0.00 | 0.00 | 36 | 1014.0 |
| 20260901031601 | 72 | 0 | 0.0 | 8.0 | 0.00 | 0.00 | 0.00 | 34 | 1013.9 |
| 20260901030057 | 73 | 326 | 1.0 | 6.0 | 0.00 | 0.00 | 0.00 | 31 | 1013.9 |
| 20260901024551 | 73 | 94 | 2.0 | 6.0 | 0.00 | 0.00 | 0.00 | 32 | 1013.8 |
| 20260901023052 | 74 | 206 | 4.0 | 16.0 | 0.00 | 0.00 | 0.00 | 30 | 1013.7 |
| 20260901021600 | 74 | 238 | 4.0 | 16.0 | 0.00 | 0.00 | 0.00 | 32 | 1013.5 |
| 20260901020048 | 75 | 296 | 7.0 | 16.0 | 0.00 | 0.00 | 0.00 | 33 | 1013.4 |
| 20260901014552 | 76 | 315 | 9.0 | 15.0 | 0.00 | 0.00 | 0.00 | 32 | 1013.2 |
| 20260901013053 | 78 | 277 | 3.0 | 11.0 | 0.00 | 0.00 | 0.00 | 31 | 1013.2 |
| 20260901011605 | 78 | 236 | 6.0 | 15.0 | 0.00 | 0.00 | 0.00 | 31 | 1013.1 |
| 20260901010049 | 79 | 213 | 6.0 | 12.0 | 0.00 | 0.00 | 0.00 | 31 | 1013.0 |
| 20260901004604 | 80 | 244 | 9.0 | 15.0 | 0.00 | 0.00 | 0.00 | 31 | 1013.0 |
| 20260901003052 | 81 | 207 | 4.0 | 13.0 | 0.00 | 0.00 | 0.00 | 28 | 1013.1 |
| 20260901001552 | 81 | 171 | 5.0 | 12.0 | 0.00 | 0.00 | 0.00 | 31 | 1013.1 |
| 20260901000059 | 81 | 221 | 6.0 | 19.0 | 0.00 | 0.00 | 0.00 | 30 | 1013.1 |
| 20260831234557 | 82 | 271 | 7.0 | 14.0 | 0.00 | 0.00 | 0.00 | 30 | 1013.0 |
| 20260831233053 | 82 | 216 | 8.0 | 17.0 | 0.00 | 0.00 | 0.00 | 30 | 1013.0 |
| 20260831231606 | 81 | 275 | 7.0 | 17.0 | 0.00 | 0.00 | 0.00 | 29 | 1013.1 |
| 20260831230101 | 82 | 263 | 6.0 | 17.0 | 0.00 | 0.00 | 0.00 | 26 | 1013.3 |
| 20260831224549 | 83 | 259 | 3.0 | 15.0 | 0.00 | 0.00 | 0.00 | 26 | 1013.2 |
| 20260831223104 | 83 | 244 | 4.0 | 14.0 | 0.00 | 0.00 | 0.00 | 24 | 1013.4 |
| 20260831221551 | 82 | 331 | 5.0 | 14.0 | 0.00 | 0.00 | 0.00 | 24 | 1013.7 |
| 20260831220051 | 82 | 273 | 5.0 | 16.0 | 0.00 | 0.00 | 0.00 | 24 | 1013.8 |
| 20260831214619 | 83 | 266 | 6.0 | 12.0 | 0.00 | 0.00 | 0.00 | 24 | 1014.0 |
| 20260831213105 | 83 | 267 | 3.0 | 14.0 | 0.00 | 0.00 | 0.00 | 24 | 1014.1 |
| 20260831211557 | 83 | 248 | 6.0 | 10.0 | 0.00 | 0.00 | 0.00 | 22 | 1014.3 |
| 20260831210052 | 84 | 275 | 4.0 | 11.0 | 0.00 | 0.00 | 0.00 | 23 | 1014.3 |
| 20260831204604 | 83 | 205 | 4.0 | 9.0 | 0.00 | 0.00 | 0.00 | 23 | 1014.5 |
| 20260831203059 | 83 | 248 | 2.0 | 8.0 | 0.00 | 0.00 | 0.00 | 22 | 1014.5 |
| 20260831201552 | 83 | 240 | 3.0 | 8.0 | 0.00 | 0.00 | 0.00 | 22 | 1014.7 |
| 20260831200053 | 83 | 352 | 1.0 | 4.0 | 0.00 | 0.00 | 0.00 | 21 | 1014.9 |
| 20260831194549 | 81 | 194 | 0.0 | 5.0 | 0.00 | 0.00 | 0.00 | 20 | 1015.1 |
| 20260831193053 | 80 | 24 | 1.0 | 4.0 | 0.00 | 0.00 | 0.00 | 23 | 1015.4 |
| 20260831191551 | 79 | 218 | 1.0 | 6.0 | 0.00 | 0.00 | 0.00 | 23 | 1015.6 |
| 20260831190115 | 79 | 259 | 1.0 | 5.0 | 0.00 | 0.00 | 0.00 | 24 | 1015.7 |
| 20260831184556 | 78 | 0 | 0.0 | 7.0 | 0.00 | 0.00 | 0.00 | 31 | 1015.9 |
| 20260831183100 | 78 | 347 | 0.0 | 3.0 | 0.00 | 0.00 | 0.00 | 32 | 1016.1 |
| 20260831181602 | 76 | 0 | 0.0 | 4.0 | 0.00 | 0.00 | 0.00 | 35 | 1016.3 |
| 20260831174549 | 72 | 0 | 0.0 | 0.0 | 0.00 | 0.00 | 0.00 | 41 | 1016.7 |
| 20260831173048 | 70 | 0 | 0.0 | 4.0 | 0.00 | 0.00 | 0.00 | 45 | 1016.7 |
| 20260831171558 | 69 | 0 | 0.0 | 2.0 | 0.00 | 0.00 | 0.00 | 44 | 1016.9 |
| 20260831170053 | 67 | 0 | 0.0 | 0.0 | 0.00 | 0.00 | 0.00 | 48 | 1016.8 |
| 20260831164601 | 66 | 0 | 0.0 | 4.0 | 0.00 | 0.00 | 0.00 | 51 | 1017.0 |
| 20260831163059 | 64 | 0 | 0.0 | 3.0 | 0.00 | 0.00 | 0.00 | 53 | 1017.1 |
| 20260831161554 | 63 | 260 | 0.0 | 3.0 | 0.00 | 0.00 | 0.00 | 57 | 1017.2 |
| 20260831160106 | 61 | 0 | 0.0 | 0.0 | 0.00 | 0.00 | 0.00 | 56 | 1017.2 |
| 20260831154624 | 60 | 0 | 0.0 | 1.0 | 0.00 | 0.00 | 0.00 | 63 | 1017.4 |
| 20260831153057 | 58 | 0 | 0.0 | 0.0 | 0.00 | 0.00 | 0.00 | 61 | 1017.4 |
| 20260831151553 | 56 | 0 | 0.0 | 0.0 | 0.00 | 0.00 | 0.00 | 65 | 1017.5 |
| 20260831150101 | 54 | 0 | 0.0 | 0.0 | 0.00 | 0.00 | 0.00 | 71 | 1017.5 |
| 20260831144559 | 51 | 0 | 0.0 | 0.0 | 0.00 | 0.00 | 0.00 | 75 | 1017.5 |
| 20260831143107 | 50 | 0 | 0.0 | 0.0 | 0.00 | 0.00 | 0.00 | 76 | 1017.4 |
| 20260831141553 | 49 | 0 | 0.0 | 0.0 | 0.00 | 0.00 | 0.00 | 77 | 1017.2 |
| 20260831140050 | 48 | 0 | 0.0 | 0.0 | 0.00 | 0.00 | 0.00 | 79 | 1017.1 |
| 20260831134548 | 48 | 0 | 0.0 | 0.0 | 0.00 | 0.00 | 0.00 | 80 | 1017.0 |
| 20260831133059 | 48 | 0 | 0.0 | 0.0 | 0.00 | 0.00 | 0.00 | 81 | 1017.0 |
| 20260831131554 | 48 | 0 | 0.0 | 0.0 | 0.00 | 0.00 | 0.00 | 81 | 1016.9 |
| 20260831130101 | 47 | 0 | 0.0 | 0.0 | 0.00 | 0.00 | 0.00 | 81 | 1017.0 |
| 20260831124558 | 47 | 0 | 0.0 | 0.0 | 0.00 | 0.00 | 0.00 | 81 | 1016.8 |
| 20260831123055 | 47 | 0 | 0.0 | 0.0 | 0.00 | 0.00 | 0.00 | 80 | 1017.0 |
| 20260831121551 | 48 | 0 | 0.0 | 0.0 | 0.00 | 0.00 | 0.00 | 79 | 1016.9 |
| 20260831120059 | 49 | 0 | 0.0 | 0.0 | 0.00 | 0.00 | 0.00 | 77 | 1016.9 |
| 20260831114600 | 50 | 0 | 0.0 | 0.0 | 0.00 | 0.00 | 0.00 | 74 | 1017.0 |
| 20260831113109 | 51 | 0 | 0.0 | 0.0 | 0.00 | 0.00 | 0.00 | 75 | 1017.1 |
| 20260831111601 | 51 | 0 | 0.0 | 0.0 | 0.00 | 0.00 | 0.00 | 74 | 1017.1 |
| 20260831110048 | 51 | 0 | 0.0 | 0.0 | 0.00 | 0.00 | 0.00 | 74 | 1017.1 |
| 20260831104558 | 51 | 0 | 0.0 | 0.0 | 0.00 | 0.00 | 0.00 | 74 | 1017.1 |
| 20260831103101 | 51 | 0 | 0.0 | 0.0 | 0.00 | 0.00 | 0.00 | 74 | 1017.2 |
| 20260831101552 | 52 | 0 | 0.0 | 0.0 | 0.00 | 0.00 | 0.00 | 72 | 1017.3 |
| 20260831100047 | 54 | 0 | 0.0 | 0.0 | 0.00 | 0.00 | 0.00 | 71 | 1017.2 |
| 20260831094559 | 55 | 0 | 0.0 | 0.0 | 0.00 | 0.00 | 0.00 | 70 | 1017.1 |
| 20260831093054 | 55 | 0 | 0.0 | 0.0 | 0.00 | 0.00 | 0.00 | 68 | 1017.2 |
| 20260831091550 | 56 | 0 | 0.0 | 0.0 | 0.00 | 0.00 | 0.00 | 67 | 1017.2 |
| 20260831090104 | 56 | 0 | 0.0 | 0.0 | 0.00 | 0.00 | 0.00 | 66 | 1017.2 |
| 20260831084548 | 56 | 0 | 0.0 | 0.0 | 0.00 | 0.00 | 0.00 | 66 | 1017.2 |
| 20260831083059 | 57 | 0 | 0.0 | 0.0 | 0.00 | 0.00 | 0.00 | 65 | 1017.4 |
| 20260831081552 | 57 | 0 | 0.0 | 0.0 | 0.00 | 0.00 | 0.00 | 65 | 1017.5 |
| 20260831080055 | 58 | 0 | 0.0 | 0.0 | 0.00 | 0.00 | 0.00 | 64 | 1017.4 |
| 20260831074559 | 58 | 0 | 0.0 | 0.0 | 0.00 | 0.00 | 0.00 | 64 | 1017.6 |
| 20260831073056 | 58 | 0 | 0.0 | 0.0 | 0.00 | 0.00 | 0.00 | 63 | 1017.5 |
| 20260831071556 | 58 | 0 | 0.0 | 2.0 | 0.00 | 0.00 | 0.00 | 62 | 1017.4 |
| 20260831070108 | 59 | 177 | 0.0 | 3.0 | 0.00 | 0.00 | 0.00 | 61 | 1017.3 |
| 20260831064600 | 61 | 0 | 0.0 | 0.0 | 0.00 | 0.00 | 0.00 | 58 | 1017.3 |
| 20260831063055 | 63 | 0 | 0.0 | 3.0 | 0.00 | 0.00 | 0.00 | 56 | 1017.3 |
| 20260831061603 | 63 | 0 | 0.0 | 2.0 | 0.00 | 0.00 | 0.00 | 54 | 1017.2 |
| 20260831060109 | 63 | 0 | 0.0 | 2.0 | 0.00 | 0.00 | 0.00 | 55 | 1017.3 |
| 20260831054549 | 63 | 0 | 0.0 | 2.0 | 0.00 | 0.00 | 0.00 | 54 | 1017.3 |
| 20260831053102 | 64 | 197 | 1.0 | 3.0 | 0.00 | 0.00 | 0.00 | 52 | 1017.4 |